Location: Catacaguana
(10.4120°N, 66.7591°W)
Time: 04:01:07
(UTC+00:00)

Cosmos 1954 Rocket - Pass Details

Date: 27 May 2022
Orbit: 751 x 782 km, 74.0° (Epoch: 24 June)

Event Time Altitude Azimuth Distance (km) Brightness Sun altitude
Rises 09:23:36 0° 336° (NNW) 3,253 7.3 -10.0°
Reaches altitude 10° 09:26:05 10° 329° (NNW) 2,324 6.4 -9.4°
Maximum altitude 09:31:04 43° 259° (W) 1,076 4.4 -8.3°
Drops below altitude 10° 09:36:01 10° 188° (S) 2,310 6.2 -7.2°
Sets 09:38:30 0° 181° (S) 3,232 7.0 -6.7°
